TimeCST,TemperatureF,Dew PointF,Humidity,Sea Level PressureIn,VisibilityMPH,Wind Direction,Wind SpeedMPH,Gust SpeedMPH,PrecipitationIn,Events,Conditions,WindDirDegrees,DateUTC
12:15 AM,39.2,19.4,45,30.22,10.0,SSE,5.8,-,N/A,,Partly Cloudy,160,2012-12-13 06:15:00
12:35 AM,39.2,21.2,49,30.22,10.0,South,3.5,-,N/A,,Partly Cloudy,170,2012-12-13 06:35:00
12:55 AM,37.4,19.4,48,30.22,10.0,Calm,Calm,-,N/A,,Mostly Cloudy,0,2012-12-13 06:55:00
1:15 AM,39.2,21.2,49,30.22,10.0,Calm,Calm,-,N/A,,Mostly Cloudy,0,2012-12-13 07:15:00
1:35 AM,39.2,21.2,49,30.21,10.0,North,-9999.0,-,N/A,,Mostly Cloudy,0,2012-12-13 07:35:00
1:55 AM,37.4,21.2,52,30.21,10.0,SE,4.6,-,N/A,,Mostly Cloudy,140,2012-12-13 07:55:00
2:15 AM,37.4,19.4,48,30.21,10.0,SSE,3.5,-,N/A,,Scattered Clouds,150,2012-12-13 08:15:00
2:35 AM,39.2,21.2,49,30.21,10.0,SSE,4.6,-,N/A,,Partly Cloudy,160,2012-12-13 08:35:00
2:55 AM,33.8,19.4,56,30.21,10.0,Calm,Calm,-,N/A,,Clear,0,2012-12-13 08:55:00
3:15 AM,35.6,19.4,52,30.21,10.0,Calm,Calm,-,N/A,,Clear,0,2012-12-13 09:15:00
3:55 AM,33.8,19.4,56,30.21,10.0,Calm,Calm,-,N/A,,Clear,0,2012-12-13 09:55:00
4:15 AM,32.0,19.4,60,30.21,10.0,Calm,Calm,-,N/A,,Clear,0,2012-12-13 10:15:00
4:55 AM,28.4,17.6,64,30.21,10.0,Calm,Calm,-,N/A,,Clear,0,2012-12-13 10:55:00
5:15 AM,26.6,15.8,64,30.21,10.0,Calm,Calm,-,N/A,,Partly Cloudy,0,2012-12-13 11:15:00
5:55 AM,26.6,17.6,69,30.22,10.0,Calm,Calm,-,N/A,,Partly Cloudy,0,2012-12-13 11:55:00
6:15 AM,30.2,19.4,64,30.22,10.0,Calm,Calm,-,N/A,,Clear,0,2012-12-13 12:15:00
6:35 AM,28.4,17.6,64,30.22,10.0,Calm,Calm,-,N/A,,Clear,0,2012-12-13 12:35:00
6:55 AM,28.4,17.6,64,30.23,10.0,Calm,Calm,-,N/A,,Clear,0,2012-12-13 12:55:00
7:15 AM,28.4,17.6,64,30.23,10.0,Calm,Calm,-,N/A,,Clear,0,2012-12-13 13:15:00
7:35 AM,26.6,15.8,64,30.24,10.0,Calm,Calm,-,N/A,,Clear,0,2012-12-13 13:35:00
7:55 AM,24.8,15.8,69,30.24,10.0,Calm,Calm,-,N/A,,Clear,0,2012-12-13 13:55:00
8:15 AM,32.0,19.4,60,30.25,10.0,Calm,Calm,-,N/A,,Clear,0,2012-12-13 14:15:00
8:35 AM,35.6,23.0,60,30.25,10.0,South,3.5,-,N/A,,Clear,180,2012-12-13 14:35:00
8:55 AM,42.8,24.8,49,30.25,10.0,SSE,10.4,-,N/A,,Clear,150,2012-12-13 14:55:00
9:15 AM,44.6,24.8,46,30.26,10.0,SSE,9.2,-,N/A,,Clear,160,2012-12-13 15:15:00
9:35 AM,46.4,24.8,43,30.27,10.0,South,9.2,-,N/A,,Clear,170,2012-12-13 15:35:00
9:55 AM,46.4,26.6,46,30.27,10.0,SSE,9.2,-,N/A,,Clear,150,2012-12-13 15:55:00
10:15 AM,48.2,26.6,43,30.26,10.0,South,5.8,-,N/A,,Clear,170,2012-12-13 16:15:00
10:35 AM,51.8,28.4,41,30.26,10.0,South,8.1,-,N/A,,Clear,190,2012-12-13 16:35:00
10:55 AM,53.6,33.8,47,30.26,10.0,South,15.0,-,N/A,,Clear,180,2012-12-13 16:55:00
11:15 AM,55.4,35.6,47,30.25,10.0,South,17.3,-,N/A,,Clear,180,2012-12-13 17:15:00
11:35 AM,55.4,35.6,47,30.24,10.0,South,13.8,-,N/A,,Clear,180,2012-12-13 17:35:00
11:55 AM,57.2,35.6,44,30.23,10.0,South,11.5,-,N/A,,Clear,190,2012-12-13 17:55:00
12:15 PM,59.0,35.6,42,30.22,10.0,South,15.0,20.7,N/A,,Clear,180,2012-12-13 18:15:00
12:35 PM,59.0,37.4,45,30.20,10.0,South,12.7,18.4,N/A,,Clear,180,2012-12-13 18:35:00
12:55 PM,60.8,37.4,42,30.18,10.0,South,12.7,19.6,N/A,,Clear,170,2012-12-13 18:55:00
1:15 PM,62.6,39.2,42,30.18,10.0,South,16.1,24.2,N/A,,Clear,190,2012-12-13 19:15:00
1:35 PM,64.4,39.2,40,30.16,10.0,South,12.7,-,N/A,,Clear,170,2012-12-13 19:35:00
1:55 PM,64.4,39.2,40,30.15,10.0,SSW,16.1,24.2,N/A,,Clear,200,2012-12-13 19:55:00
2:15 PM,64.4,39.2,40,30.14,10.0,SSW,13.8,21.9,N/A,,Clear,200,2012-12-13 20:15:00
2:35 PM,66.2,41.0,40,30.13,10.0,South,12.7,19.6,N/A,,Clear,190,2012-12-13 20:35:00
2:55 PM,66.2,41.0,40,30.12,10.0,South,13.8,18.4,N/A,,Clear,190,2012-12-13 20:55:00
3:15 PM,68.0,41.0,37,30.12,10.0,South,15.0,21.9,N/A,,Clear,180,2012-12-13 21:15:00
3:35 PM,66.2,42.8,43,30.12,10.0,South,12.7,23.0,N/A,,Clear,170,2012-12-13 21:35:00
3:55 PM,66.2,42.8,43,30.11,10.0,South,13.8,23.0,N/A,,Clear,170,2012-12-13 21:55:00
4:15 PM,66.2,44.6,46,30.12,10.0,South,18.4,25.3,N/A,,Clear,180,2012-12-13 22:15:00
5:15 PM,64.4,46.4,52,30.12,10.0,South,16.1,20.7,N/A,,Overcast,170,2012-12-13 23:15:00
5:55 PM,64.4,46.4,52,30.12,10.0,South,11.5,-,N/A,,Overcast,170,2012-12-13 23:55:00
6:15 PM,64.4,46.4,52,30.12,10.0,SSE,12.7,-,N/A,,Overcast,150,2012-12-14 00:15:00
6:35 PM,62.6,46.4,55,30.13,10.0,South,11.5,16.1,N/A,,Overcast,170,2012-12-14 00:35:00
6:55 PM,62.6,46.4,55,30.13,10.0,SSE,11.5,17.3,N/A,,Overcast,160,2012-12-14 00:55:00
7:15 PM,62.6,46.4,55,30.13,10.0,SSE,12.7,19.6,N/A,,Overcast,160,2012-12-14 01:15:00
7:35 PM,62.6,44.6,52,30.13,10.0,SSE,12.7,16.1,N/A,,Overcast,150,2012-12-14 01:35:00
7:55 PM,60.8,44.6,55,30.14,10.0,SSE,13.8,18.4,N/A,,Overcast,150,2012-12-14 01:55:00
8:15 PM,60.8,44.6,55,30.14,10.0,SSE,12.7,-,N/A,,Overcast,150,2012-12-14 02:15:00
8:55 PM,59.0,44.6,59,30.14,10.0,SSE,11.5,18.4,N/A,,Overcast,160,2012-12-14 02:55:00
9:15 PM,59.0,44.6,59,30.14,10.0,SSE,11.5,20.7,N/A,,Overcast,160,2012-12-14 03:15:00
9:35 PM,59.0,44.6,59,30.14,10.0,SSE,12.7,-,N/A,,Overcast,160,2012-12-14 03:35:00
9:55 PM,59.0,44.6,59,30.15,10.0,South,13.8,18.4,N/A,,Overcast,170,2012-12-14 03:55:00
10:15 PM,59.0,44.6,59,30.15,10.0,SSE,15.0,20.7,N/A,,Overcast,160,2012-12-14 04:15:00
10:35 PM,59.0,44.6,59,30.15,10.0,South,11.5,20.7,N/A,,Overcast,170,2012-12-14 04:35:00
10:55 PM,59.0,44.6,59,30.16,10.0,South,12.7,-,N/A,,Overcast,190,2012-12-14 04:55:00
11:15 PM,59.0,42.8,55,30.16,10.0,South,13.8,-,N/A,,Overcast,180,2012-12-14 05:15:00
11:35 PM,59.0,41.0,51,30.16,10.0,South,11.5,16.1,N/A,,Overcast,180,2012-12-14 05:35:00
11:55 PM,59.0,41.0,51,30.15,10.0,South,12.7,18.4,N/A,,Overcast,170,2012-12-14 05:55:00